Home > Weather > Riyadh > Past weeks

Flag for Saudi Arabia Weather for the Past 2 Weeks in Riyadh, Saudi Arabia

Now
61 °F

Sunny.


Feels Like: 61 °F
Forecast: 41 / 73 °F
Wind: 7 mph from North

Location: King Khaled International Airport

Current Time: Feb 13, 2016 at 11:15:18 AM

Latest Report: Feb 13, 2016 at 10:00 AM


Visibility: 10 mi

Pressure: 30.30 "Hg (28.26 "Hg at 590m altitude)

Humidity: 27%

Dew point: 27 °F

Location of RiyadhLocation

Historic Weather in Riyadh — Graph

°F

Riyadh Temperature Yesterday

Maximum temperature yesterday: 66 °F (at 2:00 PM)
Minimum temperature yesterday: 43 °F (at 7:00 AM)
Average temperature yesterday: 55 °F

High & Low Weather Summary for the Past Weeks

 TemperatureHumidityPressure
High81 °F (Feb 7, 2:00 PM)66% (Feb 4, 4:00 AM)30.42 "Hg (Feb 4, 4:00 AM)
Low34 °F (Jan 31, 6:00 AM)9% (Jan 30, 3:00 PM)29.92 "Hg (Feb 7, 3:00 PM)
Average56 °F31%30.21 "Hg
* Reported Jan 29 10:00 AM — Feb 13 10:00 AM, Riyadh, Weather by CustomWeather, © 2016

Note: Actual official high and low records may vary slightly from our data, if they occured in-between our weather recording intervals... More about our weather records

Advertising

Riyadh Weather History for the Previous 24 Hours

 ConditionsComfort  
Time TempWeatherWind HumidityBarometerVisibility
10:00 AM
Sat, Feb 13
61 °FSunny.7 mph27%30.30 "Hg10 mi
9:00 AM55 °FSunny.5 mph33%30.27 "Hg10 mi
8:00 AM48 °FSunny.No wind43%30.27 "Hg10 mi
7:00 AM43 °FSunny.2 mph53%30.27 "Hg10 mi
6:00 AM45 °FClear.5 mph46%30.24 "Hg10 mi
5:00 AM45 °FClear.7 mph46%30.21 "Hg10 mi
4:00 AM45 °FClear.6 mph46%30.24 "Hg10 mi
3:00 AM46 °FClear.5 mph43%30.24 "Hg10 mi
2:00 AM46 °FClear.7 mph40%30.24 "Hg10 mi
1:00 AM48 °FClear.7 mph37%30.24 "Hg10 mi
12:00 AM48 °FClear.5 mph40%30.27 "Hg10 mi
11:00 PM
Fri, Feb 12
52 °FClear.3 mph32%30.27 "Hg10 mi
10:00 PM52 °FClear.6 mph32%30.27 "Hg10 mi
9:00 PM55 °FClear.7 mph28%30.27 "Hg10 mi
8:00 PM57 °FClear.7 mph25%30.27 "Hg10 mi
7:00 PM59 °FClear.10 mph23%30.24 "Hg10 mi
6:00 PM63 °FClear.10 mph19%30.21 "Hg10 mi
5:00 PM64 °FSunny.12 mph18%30.21 "Hg10 mi
4:00 PM66 °FSunny.15 mph17%30.18 "Hg10 mi
3:00 PM66 °FSunny.13 mph17%30.18 "Hg10 mi
2:00 PM66 °FSunny.13 mph18%30.21 "Hg10 mi
1:00 PM63 °FSunny.14 mph20%30.24 "Hg10 mi
12:00 PM61 °FSunny.14 mph22%30.27 "Hg10 mi
11:00 AM59 °FSunny.16 mph25%30.30 "Hg10 mi
Weather by CustomWeather, © 2016

See weather overviewHow to use our weather pages